Weather History for LIRA - October, 2013

Change the Weather History Date:

Friday, October 4, 2013

  Actual Average Record
Temperature  
Mean Temperature 65 °F -  
Max Temperature 73 °F 70 °F 84 °F (2007)
Min Temperature 57 °F 50 °F 48 °F (2008)
Growing Degree Days 15 (Base 50)    
Moisture  
Dew Point 54 °F    
Average Humidity 69    
Maximum Humidity 94    
Minimum Humidity 47    
Precipitation  
Precipitation 0.00 in 0.13 in - ()
Sea Level Pressure  
Sea Level Pressure 30.22 in    
Wind  
Wind Speed 3 mph ()    
Max Wind Speed 9 mph    
Max Gust Speed -    
Visibility 6.2 miles    
Events Rain    
Averages and records for this station are not official NWS values.
T = Trace of Precipitation, MM = Missing Value Source: Averaged Metar Reports

Daily Weather History Graph

Daily Weather History Graph

Search for Another Location

Airport or City:

Trip Planner

Search our weather history database for the weather conditions in past years. The results will help you decide how hot, cold, wet, or windy it might be!

Date:

Astronomy

Oct. 04, 2013 Rise Set
Actual Time 7:09 AM CEST 6:46 PM CEST
Civil Twilight 6:41 AM CEST 7:14 PM CEST
Nautical Twilight 6:09 AM CEST 7:46 PM CEST
Astronomical Twilight 5:37 AM CEST 8:18 PM CEST
Moon 6:27 AM CEST (10/4) 6:18 PM CEST (10/4)
Length of Visible Light 12h 32m
Length of Day
11h 36m
Waning Crescent, 0% of the Moon is Illuminated
Oct 4
Waning Crescent
Oct 5
New
Oct 12
First Quarter
Oct 19
Full
Oct 27
Last Quarter

Hourly Weather History & Observations

Time (CEST) Temp. Dew Point Humidity Pressure Visibility Wind Dir Wind Speed Gust Speed Precip Events Conditions
12:15 AM 60.8 °F 55.4 °F 82% 30.21 in 6.2 mi ESE 4.6 mph - N/A   Scattered Clouds
12:45 AM 60.8 °F 55.4 °F 82% 30.21 in 6.2 mi East 4.6 mph - N/A   Scattered Clouds
1:15 AM 60.8 °F 55.4 °F 82% 30.21 in 6.2 mi East 4.6 mph - N/A   Scattered Clouds
1:45 AM 60.8 °F 53.6 °F 77% 30.21 in 6.2 mi ESE 1.2 mph - N/A   Partly Cloudy
2:15 AM 60.8 °F 55.4 °F 82% 30.21 in 6.2 mi NE 2.3 mph - N/A   Partly Cloudy
2:45 AM 59.0 °F 55.4 °F 88% 30.21 in 6.2 mi NE 2.3 mph - N/A   Partly Cloudy
3:15 AM 59.0 °F 55.4 °F 88% 30.21 in 6.2 mi NNE 1.2 mph - N/A   Scattered Clouds
3:45 AM 59.0 °F 55.4 °F 88% 30.21 in 6.2 mi NE 1.2 mph - N/A   Scattered Clouds
4:15 AM 59.0 °F 55.4 °F 88% 30.21 in 6.2 mi North 1.2 mph - N/A   Scattered Clouds
4:45 AM 57.2 °F 53.6 °F 88% 30.24 in 6.2 mi ENE 3.5 mph - N/A   Mostly Cloudy
5:15 AM 57.2 °F 53.6 °F 88% 30.21 in 6.2 mi Calm Calm - N/A   Mostly Cloudy
6:15 AM 57.2 °F 51.8 °F 82% 30.24 in 6.2 mi NNE 3.5 mph - N/A   Mostly Cloudy
6:45 AM 57.2 °F 51.8 °F 82% 30.24 in 6.2 mi NNE 3.5 mph - N/A   Mostly Cloudy
7:15 AM 57.2 °F 50.0 °F 77% 30.21 in 6.2 mi NNE 3.5 mph - N/A   Scattered Clouds
7:45 AM 57.2 °F 51.8 °F 82% 30.21 in 6.2 mi NE 1.2 mph - N/A   Scattered Clouds
8:15 AM 59.0 °F 51.8 °F 77% 30.21 in 6.2 mi NNE 3.5 mph - N/A   Scattered Clouds
8:45 AM 59.0 °F 53.6 °F 82% 30.21 in 6.2 mi NE 2.3 mph - N/A   Scattered Clouds
9:15 AM 62.6 °F 53.6 °F 72% 30.21 in 6.2 mi NNE 2.3 mph - N/A   Scattered Clouds
9:45 AM 62.6 °F 53.6 °F 72% 30.24 in 6.2 mi NNW 1.2 mph - N/A   Scattered Clouds
10:15 AM 64.4 °F 53.6 °F 68% 30.24 in 6.2 mi NNW 3.5 mph - N/A   Scattered Clouds
10:45 AM 66.2 °F 55.4 °F 68% 30.24 in 6.2 mi NNW 3.5 mph - N/A   Partly Cloudy
11:15 AM 68.0 °F 53.6 °F 60% 30.27 in 6.2 mi North 2.3 mph - N/A   Scattered Clouds
11:45 AM 68.0 °F 53.6 °F 60% 30.27 in 6.2 mi NNW 2.3 mph - N/A   Scattered Clouds
12:15 PM 71.6 °F 53.6 °F 53% 30.24 in 6.2 mi WNW 1.2 mph - N/A   Scattered Clouds
12:45 PM 71.6 °F 53.6 °F 53% 30.24 in 6.2 mi Calm Calm - N/A   Scattered Clouds
1:15 PM 73.4 °F 53.6 °F 50% 30.24 in 6.2 mi SW 1.2 mph - N/A   Scattered Clouds
1:45 PM 73.4 °F 53.6 °F 50% 30.24 in 6.2 mi NE 2.3 mph - N/A   Mostly Cloudy
2:15 PM 73.4 °F 51.8 °F 47% 30.24 in 6.2 mi Calm Calm - N/A   Mostly Cloudy
2:45 PM 73.4 °F 51.8 °F 47% 30.21 in 6.2 mi Calm Calm - N/A   Scattered Clouds
3:15 PM 73.4 °F 51.8 °F 47% 30.21 in 6.2 mi SW 2.3 mph - N/A   Scattered Clouds
3:45 PM 73.4 °F 57.2 °F 57% 30.21 in 6.2 mi SW 3.5 mph - N/A   Scattered Clouds
4:15 PM 71.6 °F 55.4 °F 57% 30.21 in 6.2 mi WSW 3.5 mph - N/A   Scattered Clouds
4:45 PM 71.6 °F 55.4 °F 57% 30.21 in 6.2 mi WSW 3.5 mph - N/A   Scattered Clouds
5:15 PM 71.6 °F 55.4 °F 57% 30.21 in 6.2 mi South 5.8 mph - N/A   Scattered Clouds
5:45 PM 71.6 °F 55.4 °F 57% 30.21 in 6.2 mi South 4.6 mph - N/A   Scattered Clouds
6:15 PM 69.8 °F 55.4 °F 60% 30.21 in 6.2 mi South 5.8 mph - N/A   Scattered Clouds
6:45 PM 69.8 °F 55.4 °F 60% 30.21 in 6.2 mi South 4.6 mph - N/A   Scattered Clouds
7:15 PM 69.8 °F 55.4 °F 60% 30.21 in 6.2 mi South 4.6 mph - N/A   Scattered Clouds
7:45 PM 69.8 °F 55.4 °F 60% 30.21 in 6.2 mi South 5.8 mph - N/A   Scattered Clouds
8:15 PM 68.0 °F 53.6 °F 60% 30.21 in 6.2 mi South 6.9 mph - N/A   Mostly Cloudy
8:45 PM 68.0 °F 51.8 °F 56% 30.21 in 6.2 mi South 5.8 mph - N/A   Mostly Cloudy
9:15 PM 68.0 °F 55.4 °F 64% 30.21 in 6.2 mi South 3.5 mph - N/A   Mostly Cloudy
9:45 PM 68.0 °F 53.6 °F 60% 30.21 in 6.2 mi South 6.9 mph - N/A   Mostly Cloudy
10:15 PM 66.2 °F 55.4 °F 68% 30.21 in 6.2 mi South 9.2 mph - N/A Rain Light Rain
10:45 PM 64.4 °F 57.2 °F 77% 30.21 in 5.6 mi South 9.2 mph - N/A Rain Light Rain
11:15 PM 64.4 °F 60.8 °F 88% 30.21 in 5.6 mi SSE 5.8 mph - N/A Rain Light Rain
11:45 PM 62.6 °F 60.8 °F 94% 30.18 in 5.6 mi SSE 4.6 mph - N/A Rain Light Rain